Regional Weather Roundup
Issued by NWS State College, PA

Home | Current Version | Previous Version | Graphics & Text | Print | Product List | Glossary Off
Versions: 1 2 3 4 5 6 7 8 9 10 11 12 13 14 15 16 17 18 19 20 21 22 23 24 25 26 27 28 29 30 31 32 33 34 35 36 37 38 39 40 41 42 43 44 45 46 47 48 49 50

000
ASUS41 KCTP 061303
RWRCTP

REGIONAL WEATHER ROUNDUP
NATIONAL WEATHER SERVICE STATE COLLEGE PA
900 AM EDT WED MAY 06 2015

Note: "fair" indicates few or no clouds below 12,000 feet with no
significant weather and/or obstructions to visibility.

* = STATION THAT DOES NOT REPORT PRECIPITATION /E.G. RAIN...SNOW...ETC/
    THUNDER OR FOG.

PAZ002>004-007>009-013>016-020>023-029>032-061400-
WESTERN PENNSYLVANIA

CITY           SKY/WX    TMP DP  RH WIND       PRES   REMARKS
ERIE           CLOUDY    51  50  96 CALM      30.25R FOG
MEADVILLE      PTSUNNY   62  58  86 S3        30.24S
FRANKLIN*      PTSUNNY   61  55  82 CALM      30.26R
NEW CASTLE     FAIR      65  65 100 VRB3      30.24F
BEAVER COUNTY  SUNNY     64  59  82 E6        30.24S
BUTLER*        SUNNY     64  57  77 E10       30.27R
PITTSBURGH INT PTSUNNY   63  60  90 VRB6      30.24S FOG
PITTSBURGH     SUNNY     64  56  75 NE3       30.24R HAZE
INDIANA*       PTSUNNY   63  59  88 E6G13     30.30F
LATROBE        MOSUNNY   59  59 100 NE6       30.26R FOG
WASHINGTON CO* SUNNY     63  61  94 CALM      30.26R
$$

PAZ004>006-010>012-017>019-024>028-033>037-041-042-045-046-049>053-061400-
CENTRAL PENNSYLVANIA

CITY           SKY/WX    TMP DP  RH WIND       PRES   REMARKS
BRADFORD       LGT RAIN  54  53  97 E8        30.28S
DUBOIS         CLOUDY    59  56  89 SE6       30.26F FOG
CLEARFIELD     LGT RAIN  56  55  97 E5        30.29F FOG
JOHNSTOWN      MOSUNNY   62  56  80 CALM      30.27R
ALTOONA        MOSUNNY   63  58  83 N6        30.28R
STATE COLLEGE  LGT RAIN  55  55 100 NE8       30.30R FOG
WILLIAMSPORT   LGT RAIN  56  54  93 VRB3      30.30R
SELINSGROVE    CLOUDY    60  55  83 NE7       30.30R
FT INDIANTOWN  CLOUDY    62  57  84 NE6       30.27R
CAPITAL CITY   RAIN      63  58  83 NE5       30.27R
HARRISBURG     LGT RAIN  63  56  78 CALM      30.26R
YORK           PTSUNNY   66  61  84 NE9       30.25F HAZE
$$

PAZ038>040-043-044-047-048-054-055-060>062-067>071-061400-
EASTERN PENNSYLVANIA

CITY           SKY/WX    TMP DP  RH WIND       PRES   REMARKS
SCRANTON       LGT RAIN  55  51  86 NE5       30.32R FOG
MOUNT POCONO   LGT RAIN  51  47  86 E9        30.32R
ALLENTOWN      CLOUDY    60  50  69 NE9       30.29R
QUAKERTOWN*    CLOUDY    61  48  63 NE8       30.29S
READING        CLOUDY    62  50  64 NE7       30.27R
LANCASTER      HVY RAIN  62  56  80 NE7       30.26R
COATESVILLE    PTSUNNY   64  57  77 NE5       30.28R
POTTSTOWN      LGT RAIN  64  47  53 NE6       30.29R
BLUE BELL      PTSUNNY   68  46  45 CALM      30.27R
DOYLESTOWN     CLOUDY    63  44  50 N8        30.27R
WILLOW GROVE   NOT AVBL
NORTH PHILA    CLOUDY    68  43  40 NE9       30.28R
PHILADELPHIA   CLOUDY    71  44  37 NE13G20   30.26R
$$



USA.gov is the U.S. government's official web portal to all federal, state and local government web resources and services.